Weather History for Thomson, GA

Change the Weather History Date:

Tuesday, January 29, 2013

  Actual Average (KDBN) Record (KDBN)
Temperature  
Mean Temperature 56 °F -  
Max Temperature 75 °F 59 °F 80 °F (1947)
Min Temperature 37 °F 32 °F 11 °F (1986)
Degree Days  
Heating Degree Days 9    
Growing Degree Days 6 (Base 50)    
Moisture  
Dew Point 53 °F    
Average Humidity 86    
Maximum Humidity 100    
Minimum Humidity 64    
Precipitation  
Precipitation 0.00 in - - ()
Sea Level Pressure  
Sea Level Pressure 30.21 in    
Wind  
Wind Speed 2 mph (SSE)    
Max Wind Speed 10 mph    
Max Gust Speed 20 mph    
Visibility 7 miles    
Events      
Averages and records for this station are not official NWS values.
T = Trace of Precipitation, MM = Missing Value Source: NWS Daily Summary

Daily Weather History Graph

Daily Weather History Graph

Search for Another Location

Airport:

Trip Planner

Search our weather history database for the weather conditions in past years. The results will help you decide how hot, cold, wet, or windy it might be!

Date:

Astronomy

Jan. 29, 2013 Rise Set
Actual Time 7:28 AM EST 5:58 PM EST
Civil Twilight 7:01 AM EST 6:25 PM EST
Nautical Twilight 6:31 AM EST 6:54 PM EST
Astronomical Twilight 6:02 AM EST 7:24 PM EST
Moon 8:42 PM EST (1/29) 8:34 AM EST (1/29)
Length of Visible Light 11h 23m
Length of Day
10h 30m
Waning Gibbous, 94% of the Moon is Illuminated
Jan 29
Waning Gibbous
Feb 3
Last Quarter
Feb 10
New
Feb 17
First Quarter
Feb 25
Full

Hourly Weather History & Observations

Time (EST) Temp. Dew Point Humidity Pressure Visibility Wind Dir Wind Speed Gust Speed Precip Events Conditions
12:15 AM 40.3 °F 40.3 °F 100% 30.34 in 3.0 mi Calm Calm - N/A   Unknown
12:35 AM 39.2 °F 39.2 °F 100% 30.33 in 3.0 mi Calm Calm - N/A   Unknown
12:55 AM 39.4 °F 39.4 °F 100% 30.32 in 3.0 mi Calm Calm - N/A   Unknown
1:15 AM 38.8 °F 38.8 °F 100% 30.32 in 5.0 mi Calm Calm - N/A   Clear
1:35 AM 39.4 °F 39.4 °F 100% 30.32 in 5.0 mi Calm Calm - N/A   Clear
1:55 AM 38.8 °F 38.8 °F 100% 30.31 in 4.0 mi Calm Calm - N/A   Clear
2:15 AM 39.0 °F 39.0 °F 100% 30.31 in 5.0 mi Calm Calm - N/A   Scattered Clouds
2:35 AM 39.2 °F 39.2 °F 100% 30.31 in 4.0 mi Calm Calm - N/A   Mostly Cloudy
2:55 AM 39.4 °F 39.4 °F 100% 30.30 in 5.0 mi Calm Calm - N/A   Scattered Clouds
3:15 AM 39.6 °F 39.6 °F 100% 30.30 in 5.0 mi Calm Calm - N/A   Clear
3:55 AM 37.8 °F 37.8 °F 100% 30.29 in 4.0 mi Calm Calm - N/A   Clear
4:15 AM 37.6 °F 37.6 °F 100% 30.29 in 4.0 mi Calm Calm - N/A   Clear
4:35 AM 37.4 °F 37.4 °F 100% 30.29 in 4.0 mi Calm Calm - N/A   Scattered Clouds
4:55 AM 38.3 °F 38.3 °F 100% 30.29 in 4.0 mi Calm Calm - N/A   Mostly Cloudy
5:15 AM 38.7 °F 38.7 °F 100% 30.29 in 4.0 mi Calm Calm - N/A   Overcast
5:35 AM 38.8 °F 38.8 °F 100% 30.29 in 4.0 mi Calm Calm - N/A   Mostly Cloudy
5:55 AM 39.4 °F 39.4 °F 100% 30.29 in 4.0 mi Calm Calm - N/A   Overcast
6:15 AM 40.3 °F 40.3 °F 100% 30.29 in 5.0 mi Calm Calm - N/A   Overcast
6:35 AM 41.5 °F 41.5 °F 100% 30.29 in 5.0 mi Calm Calm - N/A   Overcast
6:55 AM 42.3 °F 42.3 °F 100% 30.28 in 5.0 mi Calm Calm - N/A   Overcast
7:15 AM 42.8 °F 42.8 °F 100% 30.29 in 7.0 mi Calm Calm - N/A   Overcast
7:35 AM 43.3 °F 43.3 °F 100% 30.29 in 5.0 mi Calm Calm - N/A   Overcast
7:55 AM 43.7 °F 43.7 °F 100% 30.29 in 4.0 mi Calm Calm - N/A   Overcast
8:15 AM 44.2 °F 44.2 °F 100% 30.29 in 5.0 mi Calm Calm - N/A   Overcast
8:35 AM 45.5 °F 45.5 °F 100% 30.29 in 4.0 mi Calm Calm - N/A   Overcast
8:55 AM 45.9 °F 45.9 °F 100% 30.29 in 0.2 mi Calm Calm - N/A   Overcast
9:15 AM 47.5 °F 47.5 °F 100% 30.29 in 0.2 mi Calm Calm - N/A   Overcast
9:35 AM 48.9 °F 48.9 °F 100% 30.29 in 1.0 mi Calm Calm - N/A   Overcast
9:55 AM 50.9 °F 50.9 °F 100% 30.28 in 2.0 mi Calm Calm - N/A   Overcast
10:15 AM 53.4 °F 53.2 °F 99% 30.27 in 4.0 mi Calm Calm - N/A   Mostly Cloudy
10:35 AM 57.0 °F 55.4 °F 94% 30.27 in 5.0 mi Calm Calm - N/A   Scattered Clouds
10:55 AM 60.1 °F 56.1 °F 87% 30.27 in 5.0 mi South 3.5 mph - N/A   Clear
11:15 AM 64.6 °F 58.1 °F 79% 30.26 in 7.0 mi SSE 3.5 mph - N/A   Clear
11:35 AM 67.6 °F 59.4 °F 75% 30.25 in 10.0 mi SSE 6.9 mph - N/A   Clear
11:55 AM 69.4 °F 60.4 °F 73% 30.24 in 10.0 mi South 4.6 mph - N/A   Clear
12:15 PM 71.4 °F 60.8 °F 69% 30.23 in 10.0 mi Calm Calm - N/A   Clear
12:35 PM 72.5 °F 61.2 °F 67% 30.21 in 10.0 mi SSW 5.8 mph - N/A   Scattered Clouds
12:55 PM 74.5 °F 61.7 °F 64% 30.20 in 10.0 mi South 6.9 mph - N/A   Mostly Cloudy
1:15 PM 73.9 °F 61.5 °F 65% 30.19 in 10.0 mi South 5.8 mph - N/A   Mostly Cloudy
1:35 PM 74.7 °F 61.7 °F 64% 30.18 in 10.0 mi South 8.1 mph - N/A   Mostly Cloudy
1:55 PM 75.2 °F 62.1 °F 64% 30.16 in 10.0 mi South 3.5 mph - N/A   Mostly Cloudy
2:15 PM 75.2 °F 62.1 °F 64% 30.16 in 10.0 mi South 5.8 mph - N/A   Mostly Cloudy
2:35 PM 73.8 °F 62.4 °F 68% 30.16 in 10.0 mi South 4.6 mph - N/A   Overcast
2:55 PM 72.9 °F 62.2 °F 69% 30.15 in 10.0 mi SSE 4.6 mph - N/A   Overcast
3:15 PM 72.9 °F 62.6 °F 70% 30.14 in 10.0 mi SSE 3.5 mph - N/A   Overcast
3:35 PM 74.3 °F 62.6 °F 67% 30.14 in 10.0 mi SSE 4.6 mph - N/A   Overcast
3:55 PM 73.9 °F 62.2 °F 67% 30.13 in 10.0 mi South 6.9 mph - N/A   Overcast
4:15 PM 73.4 °F 62.1 °F 68% 30.13 in 10.0 mi SSE 5.8 mph - N/A   Overcast
4:35 PM 73.0 °F 62.1 °F 68% 30.12 in 10.0 mi SSE 8.1 mph - N/A   Overcast
4:55 PM 72.7 °F 62.1 °F 69% 30.13 in 10.0 mi South 3.5 mph - N/A   Overcast
5:15 PM 72.1 °F 62.2 °F 71% 30.13 in 10.0 mi Calm Calm - N/A   Overcast
5:35 PM 71.6 °F 62.1 °F 72% 30.12 in 10.0 mi SSE 4.6 mph - N/A   Overcast
5:55 PM 70.7 °F 61.9 °F 74% 30.12 in 10.0 mi SSE 3.5 mph - N/A   Overcast
6:15 PM 70.0 °F 62.4 °F 77% 30.12 in 10.0 mi SSE 4.6 mph - N/A   Overcast
6:35 PM 69.4 °F 61.9 °F 77% 30.11 in 10.0 mi SSE 4.6 mph - N/A   Overcast
6:55 PM 68.9 °F 61.7 °F 78% 30.11 in 10.0 mi SE 3.5 mph - N/A   Overcast
7:15 PM 68.9 °F 61.7 °F 78% 30.11 in 10.0 mi SE 5.8 mph - N/A   Overcast
7:35 PM 68.9 °F 61.7 °F 78% 30.11 in 10.0 mi SSE 3.5 mph - N/A   Overcast
7:55 PM 68.9 °F 61.7 °F 78% 30.11 in 10.0 mi SSE 4.6 mph - N/A   Overcast
8:15 PM 68.4 °F 61.7 °F 79% 30.10 in 10.0 mi SSE 6.9 mph - N/A   Mostly Cloudy
8:35 PM 68.4 °F 61.7 °F 79% 30.10 in 10.0 mi SSE 5.8 mph - N/A   Scattered Clouds
8:55 PM 69.1 °F 61.9 °F 78% 30.10 in 10.0 mi SSE 10.4 mph - N/A   Mostly Cloudy
9:15 PM 69.4 °F 62.1 °F 77% 30.11 in 10.0 mi SSE 10.4 mph 18.4 mph N/A   Overcast
9:35 PM 68.7 °F 62.2 °F 80% 30.10 in 10.0 mi SSE 8.1 mph 18.4 mph N/A   Mostly Cloudy
9:55 PM 68.2 °F 62.6 °F 82% 30.09 in 10.0 mi SSE 9.2 mph - N/A   Scattered Clouds
10:15 PM 68.0 °F 62.6 °F 83% 30.09 in 10.0 mi SSE 9.2 mph - N/A   Scattered Clouds
10:35 PM 67.8 °F 63.0 °F 84% 30.09 in 10.0 mi SSE 10.4 mph 18.4 mph N/A   Mostly Cloudy
10:55 PM 67.6 °F 63.1 °F 85% 30.09 in 10.0 mi South 9.2 mph 19.6 mph N/A   Scattered Clouds
11:15 PM 66.7 °F 63.0 °F 88% 30.10 in 10.0 mi South 10.4 mph - N/A   Clear
11:35 PM 66.4 °F 62.8 °F 88% 30.10 in 10.0 mi South 8.1 mph - N/A   Scattered Clouds
11:55 PM 65.8 °F 62.8 °F 90% 30.09 in 10.0 mi SSE 9.2 mph - N/A   Scattered Clouds